| time (UTC) | temp C | wind direction | speed KPH | gust KPH | rain 1hr cm | rain 24hr cm | rain mn cm | humidity % | barometer mb |
| 20260902194558 | 17 | 157 | 1.6 | 11.3 | 0.00 | 0.03 | 0.00 | 86 | 1019.1 |
| 20260902193055 | 17 | 148 | 1.6 | 14.5 | 0.00 | 0.03 | 0.00 | 86 | 1019.4 |
| 20260902191602 | 17 | 188 | 3.2 | 9.7 | 0.00 | 0.03 | 0.00 | 86 | 1019.3 |
| 20260902190053 | 17 | 163 | 3.2 | 12.9 | 0.00 | 0.03 | 0.00 | 86 | 1019.5 |
| 20260902184553 | 17 | 158 | 0.0 | 9.7 | 0.00 | 0.03 | 0.00 | 86 | 1019.4 |
| 20260902183129 | 17 | 166 | 4.8 | 9.7 | 0.00 | 0.03 | 0.00 | 85 | 1019.8 |
| 20260902181551 | 17 | 163 | 0.0 | 11.3 | 0.00 | 0.03 | 0.00 | 86 | 1019.7 |
| 20260902180050 | 17 | 173 | 0.0 | 0.0 | 0.00 | 0.03 | 0.00 | 86 | 1019.8 |
| 20260902174549 | 17 | 161 | 0.0 | 9.7 | 0.00 | 0.05 | 0.00 | 85 | 1019.9 |
| 20260902173055 | 17 | 159 | 0.0 | 16.1 | 0.00 | 0.05 | 0.00 | 84 | 1019.9 |
| 20260902171558 | 17 | 163 | 3.2 | 16.1 | 0.00 | 0.05 | 0.00 | 84 | 1020.0 |
| 20260902170048 | 17 | 183 | 1.6 | 14.5 | 0.00 | 0.05 | 0.00 | 86 | 1019.9 |
| 20260902164559 | 17 | 142 | 1.6 | 16.1 | 0.00 | 0.05 | 0.00 | 85 | 1020.2 |
| 20260902163046 | 17 | 127 | 1.6 | 11.3 | 0.00 | 0.05 | 0.00 | 85 | 1020.3 |
| 20260902161546 | 17 | 134 | 4.8 | 14.5 | 0.00 | 0.05 | 0.00 | 85 | 1020.1 |
| 20260902160047 | 16 | 138 | 3.2 | 11.3 | 0.00 | 0.05 | 0.00 | 85 | 1020.4 |
| 20260902154553 | 16 | 182 | 0.0 | 9.7 | 0.00 | 0.10 | 0.00 | 84 | 1020.9 |
| 20260902153043 | 16 | 180 | 0.0 | 17.7 | 0.00 | 0.10 | 0.00 | 83 | 1020.7 |
| 20260902151542 | 16 | 180 | 4.8 | 11.3 | 0.00 | 0.10 | 0.00 | 84 | 1020.6 |
| 20260902150041 | 16 | 174 | 0.0 | 6.4 | 0.00 | 0.10 | 0.00 | 84 | 1021.0 |
| 20260902144543 | 16 | 146 | 0.0 | 9.7 | 0.00 | 0.13 | 0.00 | 83 | 1021.2 |
| 20260902143039 | 17 | 192 | 3.2 | 8.0 | 0.00 | 0.13 | 0.00 | 84 | 1020.9 |
| 20260902141539 | 17 | 168 | 0.0 | 6.4 | 0.00 | 0.13 | 0.00 | 84 | 1021.0 |
| 20260902140039 | 17 | 153 | 3.2 | 11.3 | 0.00 | 0.13 | 0.00 | 84 | 1020.6 |
| 20260902134534 | 16 | 198 | 1.6 | 8.0 | 0.00 | 0.13 | 0.00 | 83 | 1020.5 |
| 20260902133031 | 16 | 117 | 1.6 | 11.3 | 0.00 | 0.13 | 0.00 | 85 | 1020.5 |
| 20260902131527 | 15 | 178 | 1.6 | 9.7 | 0.00 | 0.13 | 0.00 | 86 | 1020.4 |
| 20260902130031 | 15 | 140 | 0.0 | 0.0 | 0.00 | 0.13 | 0.00 | 86 | 1020.5 |
| 20260902124523 | 15 | 23 | 0.0 | 0.0 | 0.00 | 0.15 | 0.00 | 85 | 1020.3 |
| 20260902123028 | 15 | 216 | 0.0 | 6.4 | 0.00 | 0.15 | 0.00 | 85 | 1020.2 |
| 20260902121520 | 15 | 139 | 1.6 | 11.3 | 0.00 | 0.15 | 0.00 | 87 | 1020.3 |
| 20260902120017 | 14 | 278 | 0.0 | 0.0 | 0.00 | 0.15 | 0.00 | 88 | 1020.3 |
| 20260902114518 | 13 | 155 | 0.0 | 3.2 | 0.00 | 0.51 | 0.00 | 88 | 1020.5 |
| 20260902113011 | 13 | 166 | 0.0 | 0.0 | 0.00 | 0.51 | 0.00 | 88 | 1020.5 |
| 20260902111509 | 13 | 165 | 0.0 | 0.0 | 0.00 | 0.51 | 0.00 | 88 | 1020.5 |
| 20260902110008 | 12 | 165 | 0.0 | 0.0 | 0.00 | 0.51 | 0.00 | 88 | 1020.6 |
| 20260902104506 | 13 | 202 | 0.0 | 0.0 | 0.00 | 0.81 | 0.00 | 88 | 1020.4 |
| 20260902103003 | 12 | 201 | 0.0 | 0.0 | 0.00 | 0.81 | 0.00 | 88 | 1020.3 |
| 20260902101502 | 12 | 202 | 0.0 | 0.0 | 0.00 | 0.81 | 0.00 | 88 | 1020.2 |
| 20260902094559 | 12 | 168 | 0.0 | 0.0 | 0.00 | 0.81 | 0.00 | 88 | 1019.7 |
| 20260902093058 | 12 | 169 | 0.0 | 1.6 | 0.00 | 0.81 | 0.00 | 88 | 1019.8 |
| 20260902091601 | 12 | 152 | 0.0 | 0.0 | 0.00 | 0.81 | 0.00 | 88 | 1019.7 |
| 20260902090058 | 12 | 152 | 0.0 | 0.0 | 0.00 | 0.81 | 0.00 | 88 | 1019.5 |
| 20260902084556 | 12 | 152 | 0.0 | 0.0 | 0.00 | 0.81 | 0.00 | 88 | 1019.5 |
| 20260902083055 | 12 | 186 | 0.0 | 0.0 | 0.00 | 0.81 | 0.00 | 88 | 1019.4 |
| 20260902081559 | 12 | 186 | 0.0 | 0.0 | 0.00 | 0.81 | 0.00 | 88 | 1019.5 |
| 20260902080057 | 12 | 186 | 0.0 | 0.0 | 0.00 | 0.81 | 0.00 | 88 | 1019.4 |
| 20260902074555 | 12 | 186 | 0.0 | 0.0 | 0.00 | 0.81 | 0.00 | 88 | 1019.5 |
| 20260902073054 | 13 | 187 | 0.0 | 0.0 | 0.00 | 0.81 | 0.00 | 88 | 1019.4 |
| 20260902071549 | 13 | 174 | 0.0 | 0.0 | 0.00 | 0.81 | 0.00 | 88 | 1019.2 |
| 20260902070049 | 13 | 174 | 0.0 | 0.0 | 0.00 | 0.81 | 0.00 | 88 | 1019.2 |
| 20260902064551 | 13 | 174 | 0.0 | 0.0 | 0.00 | 0.81 | 0.00 | 88 | 1019.5 |
| 20260902063057 | 13 | 174 | 0.0 | 0.0 | 0.00 | 0.81 | 0.00 | 88 | 1019.6 |
| 20260902061545 | 13 | 174 | 0.0 | 0.0 | 0.00 | 0.81 | 0.00 | 87 | 1019.4 |
| 20260902060043 | 13 | 174 | 0.0 | 0.0 | 0.00 | 0.81 | 0.00 | 88 | 1019.5 |
| 20260902054543 | 13 | 174 | 0.0 | 0.0 | 0.00 | 0.81 | 0.00 | 88 | 1019.3 |
| 20260902053041 | 13 | 174 | 0.0 | 0.0 | 0.00 | 0.81 | 0.00 | 88 | 1019.2 |
| 20260902051539 | 13 | 174 | 0.0 | 0.0 | 0.00 | 0.81 | 0.00 | 88 | 1019.0 |
| 20260902050037 | 13 | 174 | 0.0 | 0.0 | 0.00 | 0.81 | 0.00 | 88 | 1018.8 |
| 20260902044536 | 13 | 174 | 0.0 | 0.0 | 0.03 | 0.81 | 0.00 | 88 | 1018.4 |
| 20260902043041 | 13 | 174 | 0.0 | 0.0 | 0.03 | 0.81 | 0.00 | 88 | 1018.2 |
| 20260902041535 | 13 | 174 | 0.0 | 0.0 | 0.03 | 0.81 | 0.00 | 88 | 1018.2 |
| 20260902040033 | 13 | 174 | 0.0 | 0.0 | 0.03 | 0.81 | 0.00 | 88 | 1018.3 |
| 20260902034532 | 13 | 174 | 0.0 | 4.8 | 0.00 | 0.79 | 0.79 | 88 | 1017.9 |
| 20260902033032 | 13 | 158 | 0.0 | 0.0 | 0.00 | 0.79 | 0.79 | 88 | 1017.9 |
| 20260902031532 | 13 | 167 | 0.0 | 0.0 | 0.00 | 0.79 | 0.79 | 88 | 1018.1 |
| 20260902030030 | 13 | 174 | 0.0 | 0.0 | 0.00 | 0.79 | 0.79 | 88 | 1018.2 |
| 20260902024528 | 14 | 173 | 0.0 | 4.8 | 0.00 | 0.79 | 0.79 | 88 | 1018.2 |
| 20260902023039 | 14 | 180 | 1.6 | 8.0 | 0.00 | 0.79 | 0.79 | 88 | 1018.1 |
| 20260902021538 | 14 | 178 | 0.0 | 8.0 | 0.00 | 0.79 | 0.79 | 88 | 1017.9 |
| 20260902020024 | 15 | 173 | 0.0 | 0.0 | 0.00 | 0.79 | 0.79 | 88 | 1017.7 |
| 20260902014524 | 15 | 171 | 0.0 | 0.0 | 0.00 | 0.79 | 0.79 | 88 | 1017.3 |
| 20260902013023 | 15 | 145 | 0.0 | 0.0 | 0.00 | 0.79 | 0.79 | 88 | 1017.5 |
| 20260902011522 | 15 | 97 | 0.0 | 0.0 | 0.00 | 0.79 | 0.79 | 88 | 1017.6 |
| 20260902010021 | 15 | 275 | 0.0 | 0.0 | 0.00 | 0.79 | 0.79 | 88 | 1017.5 |
| 20260902004520 | 15 | 275 | 0.0 | 0.0 | 0.00 | 0.79 | 0.79 | 88 | 1017.5 |
| 20260902003019 | 15 | 185 | 0.0 | 0.0 | 0.00 | 0.79 | 0.79 | 88 | 1017.3 |
| 20260902001517 | 15 | 172 | 0.0 | 0.0 | 0.00 | 0.79 | 0.79 | 88 | 1017.1 |
| 20260902000016 | 15 | 360 | 0.0 | 0.0 | 0.00 | 0.79 | 0.79 | 88 | 1016.8 |
| 20260901234513 | 15 | 173 | 0.0 | 0.0 | 0.00 | 0.79 | 0.79 | 88 | 1016.7 |
| 20260901233013 | 15 | 184 | 0.0 | 0.0 | 0.00 | 0.79 | 0.79 | 88 | 1016.7 |
| 20260901231513 | 15 | 181 | 0.0 | 0.0 | 0.00 | 0.79 | 0.79 | 88 | 1016.7 |
| 20260901230013 | 15 | 281 | 0.0 | 0.0 | 0.00 | 0.79 | 0.79 | 88 | 1016.5 |
| 20260901224512 | 15 | 169 | 0.0 | 0.0 | 0.00 | 0.79 | 0.79 | 88 | 1016.6 |
| 20260901223017 | 15 | 226 | 0.0 | 0.0 | 0.00 | 0.79 | 0.79 | 88 | 1016.5 |
| 20260901221510 | 16 | 233 | 0.0 | 0.0 | 0.00 | 0.79 | 0.79 | 88 | 1016.6 |
| 20260901220015 | 16 | 200 | 0.0 | 0.0 | 0.00 | 0.79 | 0.79 | 88 | 1016.5 |
| 20260901214509 | 16 | 207 | 0.0 | 0.0 | 0.00 | 0.79 | 0.79 | 88 | 1016.3 |
| 20260901213019 | 15 | 179 | 0.0 | 0.0 | 0.00 | 0.79 | 0.79 | 88 | 1016.2 |
| 20260901211511 | 15 | 214 | 0.0 | 0.0 | 0.00 | 0.79 | 0.79 | 88 | 1016.1 |
| 20260901210008 | 16 | 177 | 0.0 | 0.0 | 0.00 | 0.79 | 0.79 | 88 | 1016.1 |
| 20260901204507 | 16 | 178 | 0.0 | 0.0 | 0.00 | 0.79 | 0.79 | 88 | 1016.1 |
| 20260901203026 | 16 | 277 | 0.0 | 0.0 | 0.00 | 0.79 | 0.79 | 88 | 1015.9 |
| 20260901201507 | 16 | 217 | 0.0 | 3.2 | 0.00 | 0.79 | 0.79 | 88 | 1015.9 |
| 20260901200006 | 16 | 243 | 0.0 | 12.9 | 0.00 | 0.79 | 0.79 | 88 | 1015.7 |